Погода в Бирзаи

Погода в Бирзаи : погода сейчас, прогноз погоды и архив. Всё, что Вы хотите узнать о погоде в Бирзаи!

Поиск расширенной информации на нашем сайте:

Другие новости

Новости СМИ2

Главная страница сайта

Новости сайта

02.10.2013

Напоминаем, что на нашем новом сайте вы можете получить высокодетализированные прогнозы погоды по пунктам России, СНГ и мира (включающие важные для авиации метеовеличины, такие как направление и скорость ветра, видимость, явления погоды, количество и форма облачности, нижняя и верхняя граница облачности), а также ознакомиться с разнообразными материалами по авиационной метеорологии и подборкой полезных ссылок на эту тему.

Сайт Метеоцентр.Азия посвящён разработке технологий оптимизации авиаметеорологического обслуживания, включая проектирование и перспективное создание нескольких автоматизированных авиаметеорологических систем:
- система выпуска высокодетальных прогностических карт явлений погоды для нижнего воздушного пространства по России и ближнему зарубежью;
- система верификации прогнозов TAF (выпускаемых синоптиками официальных АМСГ РФ и ближнего зарубежья) и AUTOTAF (выпускаемых сайтом Метеоцентр.Азия) - выявление ошибок, онлайн-сопоставление с фактической погодой METAR, автоматическое внесение коррективов в прогнозы при резком отклонении фактической погоды от прогноза, подсчёт оправдываемости прогнозов по элементам и в целом;
- система обработки, анализа и отображения авиаметеорологической информации для применения провайдерами метеорологической информации.


Погода в Бирзаи - сегодня

Время (UTC), дата Ветер
(°,м/с) 
Видим.   Явления Облачность Т
(°С)
Тd
(°С)
f(%) Тe
(°С)
Pmin
(гПа)
dP
(гПа)
Po
(мм)
O2
(г/м3)
Тmin Tmax R s Состояние
почвы
15 18.01.17 220 (ЮЗ) 4-7{09}  13000 м    10/10 930 м 
[Sc]
-1.6 -3.6 86 -4  1035.1  -0.4  770  312           
18 18.01.17 220 (ЮЗ) 3-8{10}  15000 м  слаб. ливневой снег  10/10 870 м кучево-дожд. 
[Cb cap]
-1.4 -3.1 88 -3  1033.9  -1.2  769  311    -1.3  0.0  11   
21 18.01.17 210 (ЮЗ) 4-8{10}  9000 м  дымка{ливн. осадки}  10/10 240 м 
[St]
-1.6 -2.4 94 -4  1032.7  -1.2  769  311           
00 19.01.17 210 (ЮЗ) 5-10{11}  5000 м  дымка{ливн. осадки}  10/10 180 м 
[St]
-1.3 -1.8 96 -5  1030.9  -1.7  767  311      0.0  11   
03 19.01.17 230 (ЮЗ) 5-10{11}  4200 м  слаб. ливневой снег  10/10 150 м кучево-дожд. 
[Cb cap]
-1.3 -1.8 96 -5  1029.2  -1.7  766  310           
06 19.01.17 240 (ЮЗ) 5-10{10}  6000 м  слаб. переохл. морось (гололёд){ливн. осадки} [диам. гололёда 1 мм]  10/10 180 м 
[St]
-1.1 -1.5 97 -4  1027.7  -1.5  765  309  -1.9    0.4  11  неравномерный
сухой снег
100% 
09 19.01.17 230 (ЮЗ) 4-9{11}  2200 м  слаб. переохл. морось (гололёд) [диам. гололёда 1 мм]  10/10 150 м 
[St]
-1 -1.4 97 -4  1027.8  0.1  765  309           
12 19.01.17 220 (ЮЗ) 4-7{10}  2800 м  слаб. переохл. морось (гололёд) [диам. гололёда 2 мм]  10/10 120 м 
[St]
-1.2 -1.4 99 -4  1026.4  -1.4  764  309      0.3  10   
15 19.01.17 220 (ЮЗ) 4-7{09}  2500 м  слаб. переохл. морось (гололёд) [диам. гололёда 3 мм]  10/10 100 м 
[St]
-0.8 -0.8 100 -3  1025.4  -1  763  308           
18 19.01.17 230 (ЮЗ) 4-8{09}  2500 м  слаб. переохл. морось (гололёд) [диам. гололёда 4 мм]  10/10 100 м 
[St]
+0.1 +0.1 100 -2  1023.9  -1.4  762  306    +0.2  10   
21 19.01.17 260 (З) 3-5{09}  1400 м  слаб. морось [диам. гололёда 0 мм]  10/10 30 м 
[St]
+0.8 +0.8 100 -1  1023.2  -0.7  761  305           
00 20.01.17 260 (З) 3-6{09}  2100 м  слаб. морось  10/10 30 м 
[St]
+1.7 +1.7 100 1023.2  762  305      0.8   
03 20.01.17 270 (З) 3-4{07}  2300 м  в посл. час туман{морось}  10/10 60 м 
[St]
+1.6 +1.6 100 1023.8  0.6  762  304           
06 20.01.17 290 (З) 2-3{05}  9000 м  дымка{морось, туман}  10/10 180 м 
[St]
+1.7 +1.7 100 +1  1024.3  0.5  762  304  +0.1    0.8  неравномерный
мокрый или
старый снег
100% 
09 20.01.17 270 (З) 2-4{06}  7000 м  дымка  10/10 100 м 
[St]
+1.1 +1.1 100 1024.8  0.5  763  305           
12 20.01.17 240 (ЮЗ) 3-5{07}  0800 м  туман  ?/?  
+0.7 +0.7 100 -1  1023.6  -1.2  762  306         
15 20.01.17 230 (ЮЗ) 4-7{07}  0900 м  слаб. морось{туман}  ?/?  
+1.6 +1.6 100 -1  1021.4  -2.2  760  303           
18 20.01.17 260 (З) 4-8{08}  1900 м  дымка{морось, туман}  10/10 60 м 
[St]
+2.1 +2.1 100 1019.9  -1.5  759  302    +2.2  0.0   
21 20.01.17 270 (З) 3-6{10}  1700 м  дымка{морось}  10/10 60 м 
[St]
+1.6 +1.6 100 1020.5  0.6  759  303           
00 21.01.17 280 (З) 3-5{07}  10 км  {морось}  10/10 270 м 
[St]
+2 +2 100 +1  1020.9  0.4  767  307      0.0   
03 21.01.17 280 (З) 3-6{08}  20000 м    ясно 
+1.1 +1.1 100 1021.5  0.6  760  304           
06 21.01.17 290 (З) 1-3{06}  10 км    10/10 150 м 
[St]
+0.6 +0.6 100 +1  1022.7  1.2  761  305  +0.4    0.0  неравномерный
мокрый или
старый снег
100% 
09 21.01.17 310 (СЗ) 3-6{06}  8000 м  дымка  9/9 450 м 
[St]
+1.4 +1.4 100 1024.8  2.1  763  305           
12 21.01.17 320 (СЗ) 3-7{08}  20000 м    4/4 400 м 
[St]
+1.8 +0.3 90 1025.9  1.1  764  306         
18 21.01.17 270 (З) 2-3{03}  1500 м  дымка  ясно 
-0.9 -1.1 99 -2  1028.8  1.2  766  309    +2     
Время (UTC), дата Ветер
(°,м/с) 
Видим.   Явления Облачность Т
(°С)
Тd
(°С)
f(%) Тe
(°С)
Pmin
(гПа)
dP
(гПа)
Po
(мм)
O2
(г/м3)
Тmin Tmax R s Состояние
почвы

Для получения пояснительной информации подведите курсор к названию столбца.

ПОГОДА в Бирзаи - архив

Всё, что Вы хотите узнать о погоде в Бирзаи - удобно и подробно!

Выберите нужную дату (начиная с 1 января 2015* года) и нажмите кнопку "Найти".
Будут отображены архивные сводки погоды по пункту Бирзаи, начиная с указанной даты.


Отображать данные в формате CSV (для использования в таблицах Excel)


Внимание! Наш архив погоды предназначен исключительно для личного некоммерческого использования в познавательных целях. Если Вам необходимы официальные справки о состоянии погоды (для производственных, юридических, коммерческих и т.п. целей), обращайтесь в органы Росгидромета.

*Примечание: данная дата относится к архиву по метеостанциям СССР (Россия, СНГ, Балтия).
Архив по метеостанциям Зарубежной Европы и Азии (кроме Китая) хранится 10 дней, по другим регионам земного шара (Китай, Африка, Америка, Австралия, Океания) - 1 день.

Бирзаи - район местоположения метеостанции


Название, широта, долгота, высота метеостанции:
Бирзаи 56.2°ш. 24.8°д. 62 м над ур. моря [Литва]

Дополнительная информация

В oтличие oт бoльшинства пoгoдных сайтoв мы публикуем пoдрoбную метеoинфoрмацию в детальнoм прoфессиoнальнoм фoрмате.

Характеристики температуры и влажнoсти вoздуха измеряются на высoте 2 м в тени вдали oт зданий и деревьев.
Скoрoсть ветра измеряется на высoте 10 м (на урoвне рoста челoвека скoрoсть ветра ниже в 1.5-2 раза). Если метеoстанция нахoдится в гoрoде или в лесу, тo скoрoсть ветра занижена на 2-4 м/с пo сравнению с oткрытым местoм. Скoрoсть ветра над акватoриями крупных рек и oзёр, а также на вершинах хoлмoв на 2-5 м/с выше, чем в oбычных услoвиях.
Атмoсфернoе давление в разных тoчках местнoсти мoжет значительнo oтличаться oт давления на метеoстанции, в зависимoсти oт услoвий рельефа (при пoдъёме на 10 м давление пoнижается примернo на 1 мм рт.ст.).